Dewpoint
50 38 29 20 19 15 14 18 21 41 47 50 51 47 52 53 54 53 62 62 64 64 65 66 71 71 71 72 72 71 71 70 69 69 69 69 69 69 68 67 66 64 63 62 60 59 59 60 61
30 20 15 21 16 14 14 17 21 49 51 51 50 51 51 52 60 61 62 62 64 64 65 65 70 71 72 72 71 71 70 69 69 69 68 69 68 67 66 65 66 64 61 60 59 59 60 61 61
28 20 16 15 16 12 15 27 47 50 51 48 47 49 50 53 60 62 64 65 64 63 64 67 70 71 71 71 71 70 70 70 69 69 68 67 66 66 65 64 65 62 60 59 58 59 60 61 61
20 12 16 17 17 18 17 42 46 47 47 47 49 47 53 61 57 64 65 64 64 64 67 68 69 70 71 71 70 70 70 70 70 69 67 66 66 65 64 64 64 61 60 60 59 60 61 62 62
17 16 12 10 12 14 20 46 44 44 42 46 45 49 53 58 60 62 65 64 64 66 66 67 69 70 70 70 70 70 70 69 69 68 67 66 64 64 64 63 62 61 61 60 60 61 61 62 62
13 14 15 12 12 21 30 44 44 43 41 40 41 47 52 59 58 62 64 66 66 66 66 67 69 69 69 70 70 69 69 69 68 68 67 65 64 64 62 62 61 61 61 61 61 62 62 61 61
16 17 16 15 17 29 44 46 44 46 43 39 42 46 57 59 60 65 66 66 65 66 66 66 67 69 69 68 68 68 68 68 67 67 66 66 65 65 64 63 62 62 61 61 62 62 61 60 59
17 18 17 18 20 29 39 42 40 39 41 44 47 46 54 60 64 59 66 65 67 66 64 60 62 62 65 66 67 67 67 66 66 66 64 64 63 63 63 64 63 62 62 62 62 61 59 58 59
19 18 16 22 28 48 43 37 38 39 37 41 47 49 54 62 64 62 63 64 65 59 58 58 57 59 60 62 65 66 66 65 65 63 64 61 56 57 59 63 63 61 60 60 60 59 58 58 59
17 18 17 41 46 40 41 41 34 37 36 41 48 57 61 62 61 60 60 61 58 55 54 56 58 58 57 53 59 58 57 57 58 59 60 58 59 60 58 61 62 59 58 59 59 57 58 58 49
20 19 21 42 48 38 31 32 36 36 33 34 41 55 59 59 59 58 57 56 49 50 51 54 57 58 55 56 55 54 56 59 60 61 60 62 59 60 59 59 58 58 57 54 54 53 51 53 51
18 18 17 19 34 31 31 35 33 34 32 40 46 55 55 55 56 55 50 41 45 48 50 54 57 58 58 55 53 56 55 58 58 62 62 62 62 63 60 57 56 56 54 56 54 52 53 52 51
16 20 18 29 30 30 35 44 46 31 34 36 52 53 53 53 52 43 38 42 47 48 50 52 55 58 59 59 59 59 60 60 63 64 65 64 65 62 61 59 55 55 53 51 52 51 50 50 49
19 24 27 32 33 32 33 39 31 36 39 45 50 49 47 45 38 37 40 45 48 50 53 54 56 58 59 61 62 61 61 61 64 64 64 63 63 62 59 58 55 53 52 50 50 49 47 48 47
18 27 27 27 30 30 32 29 28 37 39 44 45 43 39 35 35 37 41 46 49 52 55 57 59 59 60 58 57 57 57 58 60 61 62 61 61 60 59 55 53 50 49 50 48 50 48 44 42
18 15 21 23 27 28 29 21 27 37 38 38 38 35 33 33 35 37 39 44 50 54 57 58 58 61 60 59 57 57 58 58 59 59 59 58 56 55 53 50 49 49 48 48 46 42 39 38 36
14 12 16 19 23 21 24 16 28 35 37 38 37 37 35 36 35 40 43 43 47 55 58 59 61 61 60 59 59 59 58 57 57 53 53 52 51 51 49 48 49 48 44 42 40 39 39 37 35
12 13 14 16 19 17 13 19 29 35 34 38 39 38 38 40 41 46 48 48 48 56 59 60 60 61 60 61 60 58 57 52 50 48 47 48 48 49 48 47 46 43 40 41 40 41 37 36 34
15 9 9 9 11 11 12 18 26 33 33 36 39 40 41 43 46 51 52 53 51 57 59 60 60 60 60 59 56 55 51 48 47 46 47 47 47 47 48 43 42 41 39 39 41 39 39 36 36
12 16 12 14 14 21 15 18 25 33 34 34 37 41 43 45 48 51 54 56 57 59 60 59 58 59 59 56 53 51 48 46 46 46 48 47 47 45 42 43 40 41 38 39 40 41 37 36 37
16 16 24 17 20 18 20 20 28 31 34 37 38 40 42 45 49 53 55 57 57 57 59 58 58 56 53 50 48 48 47 47 45 46 45 46 45 42 42 41 41 41 39 37 40 40 38 34 35
19 23 19 19 21 16 22 13 24 31 34 39 41 43 44 47 50 53 55 57 59 59 58 56 52 49 48 48 46 47 43 43 47 46 45 44 43 41 39 39 40 41 40 40 39 36 39 39 34
26 24 22 20 17 19 20 13 24 30 30 35 40 43 46 49 50 50 51 52 52 54 51 49 48 47 48 48 47 47 46 47 46 46 46 45 44 40 37 39 40 40 39 40 41 41 41 39 38
28 26 24 23 21 22 17 18 14 24 26 32 38 43 46 47 47 44 46 46 47 51 50 49 47 46 48 49 49 48 48 44 43 43 42 39 37 35 36 36 39 40 39 38 38 40 39 40 39
26 25 26 24 21 21 23 20 16 22 30 29 38 43 46 46 44 41 41 40 44 47 49 48 46 46 48 49 49 48 46 43 40 39 37 35 34 34 37 39 39 37 37 36 37 37 39 39 38
24 23 23 15 17 17 23 12 23 31 34 34 39 43 46 46 43 41 41 41 44 47 48 48 46 46 48 48 46 45 42 39 38 36 37 37 37 37 39 39 37 34 33 33 36 36 37 39 41
26 22 27 24 34 26 14 17 31 32 33 35 39 42 45 44 42 40 42 43 44 46 48 49 46 46 46 45 44 42 41 38 37 38 39 38 39 35 33 33 32 32 32 33 34 35 36 38 38
27 28 24 24 20 14 8 10 17 26 28 33 38 42 44 42 41 41 42 44 45 46 48 50 47 45 43 42 41 39 37 37 38 39 38 36 33 31 30 31 31 31 32 33 33 33 34 37 35
28 26 23 23 25 21 14 14 21 23 27 32 36 41 42 42 41 42 42 45 46 47 47 48 45 43 40 39 39 40 38 36 37 35 31 30 31 30 30 30 30 30 31 31 33 35 34 36 33
26 24 25 26 20 25 29 15 22 26 28 31 34 39 40 41 41 42 43 45 46 45 44 44 42 39 38 38 40 37 36 34 32 29 28 31 31 32 31 30 30 30 30 31 34 35 33 34 33
Lifted_Index
7 7 7 6 5 3 1 0 -1 -2 -3 -3 -2 -3 -3 -4 -4 -4 -4 -4 -5 -5 -4 -4 -5 -5 -6 -6 -5 -5 -5 -5 -5 -4 -4 -4 -4 -4 -3 -3 -2 -1 -0 1 1 2 2 2 1
7 7 7 5 4 2 0 -0 -1 -3 -2 -2 -2 -2 -3 -3 -4 -4 -3 -4 -5 -5 -4 -4 -5 -5 -6 -6 -5 -5 -5 -5 -5 -4 -4 -4 -3 -3 -3 -2 -1 -0 1 1 2 2 2 2 1
6 6 6 4 2 0 -1 -1 -2 -2 -2 -1 -1 -1 -1 -2 -3 -3 -3 -4 -4 -4 -4 -4 -5 -6 -6 -6 -5 -5 -5 -5 -4 -4 -4 -3 -3 -2 -2 -1 -0 1 1 2 2 2 2 1 1
6 5 4 3 1 -0 -1 -2 -2 -2 -1 -0 0 0 -0 -1 -1 -2 -3 -3 -4 -4 -4 -5 -6 -6 -6 -6 -6 -5 -5 -5 -4 -4 -3 -2 -2 -1 -1 -0 0 1 1 2 2 2 2 1 1
5 4 2 1 0 -0 -1 -2 -2 -1 -0 0 0 1 0 -0 -1 -2 -3 -3 -3 -4 -5 -6 -6 -6 -6 -6 -6 -6 -5 -4 -4 -3 -2 -2 -1 -0 0 0 1 1 1 1 2 1 1 1 1
3 2 1 0 -0 -1 -1 -1 -1 -1 -0 0 1 0 -0 -1 -1 -2 -2 -2 -3 -4 -5 -6 -7 -7 -6 -6 -6 -5 -5 -4 -3 -3 -2 -1 -0 0 0 1 1 1 1 1 1 1 1 2 2
2 1 0 -0 -1 -1 -1 -1 -1 -0 0 0 0 -1 -2 -2 -2 -2 -2 -2 -3 -4 -6 -7 -7 -6 -6 -6 -5 -5 -4 -3 -2 -2 -1 -0 0 0 1 1 0 0 0 0 0 1 1 2 3
2 1 0 -0 -1 -2 -2 -1 0 0 0 -0 -1 -2 -3 -3 -2 -1 -2 -3 -4 -5 -5 -6 -5 -5 -5 -5 -4 -4 -3 -2 -1 -1 -0 0 1 1 0 0 0 0 0 0 1 1 2 3 4
2 1 0 -0 -1 -2 -2 -0 1 1 0 -1 -2 -3 -4 -4 -3 -3 -3 -4 -5 -5 -4 -4 -4 -3 -3 -3 -3 -2 -1 -1 -1 -0 0 0 0 -0 -0 -0 -0 1 1 1 2 3 3 4 4
2 1 -0 -1 -1 -1 -1 -0 0 1 0 -1 -2 -4 -5 -5 -5 -4 -4 -5 -4 -3 -3 -2 -2 -2 -2 -1 -1 -1 -0 -0 -1 -1 -1 -1 -1 -2 -1 -1 -1 1 1 2 2 3 3 3 3
1 1 0 -1 -1 -0 0 0 -0 -0 -0 -1 -3 -5 -6 -6 -5 -5 -4 -3 -2 -1 -1 -1 -1 -1 -1 -0 -0 -0 -0 -1 -2 -2 -3 -3 -3 -3 -3 -2 -1 -0 1 1 2 2 2 2 2
1 1 1 -0 -1 -0 0 -0 -1 -1 -1 -2 -4 -5 -6 -6 -5 -4 -2 -1 0 0 0 -0 -1 -1 -1 -1 -1 -1 -1 -2 -3 -3 -4 -4 -4 -4 -3 -3 -2 -1 -0 0 1 1 2 2 2
1 1 1 0 -0 0 -0 -1 -1 -1 -1 -3 -5 -5 -5 -4 -3 -1 0 1 0 0 0 -0 -1 -1 -1 -2 -2 -2 -2 -3 -3 -4 -4 -4 -4 -4 -4 -3 -2 -1 0 1 2 2 3 3 3
1 1 1 0 -0 -0 -1 -1 -1 -2 -2 -3 -4 -4 -3 -2 -1 1 1 0 -0 -1 -1 -1 -1 -2 -2 -2 -2 -2 -2 -2 -3 -3 -3 -3 -3 -3 -3 -2 -1 0 2 3 3 4 4 4 4
1 1 1 0 -1 -1 -1 -1 -1 -2 -2 -3 -3 -3 -1 0 1 1 1 -0 -1 -2 -2 -2 -2 -2 -2 -1 -1 -0 -0 -0 -1 -2 -2 -2 -2 -2 -1 -0 1 2 3 4 5 5 5 5 5
2 1 1 0 -1 -1 -1 -0 -1 -1 -2 -3 -2 -1 -0 1 1 1 1 -0 -2 -3 -3 -3 -2 -2 -1 -0 0 1 2 2 1 0 -0 0 0 0 1 2 3 4 5 5 6 6 7 7 7
1 1 1 -0 -1 -1 -0 0 -0 -1 -2 -3 -2 -1 -1 0 0 -0 -0 -1 -1 -3 -3 -3 -3 -2 -1 -0 0 1 2 2 2 2 3 3 3 3 3 4 4 5 6 6 7 8 8 9 9
0 0 0 -0 -0 -0 -0 -0 -1 -1 -2 -3 -3 -2 -2 -1 -1 -2 -2 -1 -2 -3 -3 -3 -2 -2 -1 -1 -0 1 2 3 3 4 5 4 4 4 4 5 5 6 7 7 8 8 9 9 9
0 -0 -0 0 0 0 -0 -0 -1 -1 -2 -3 -3 -3 -3 -3 -2 -3 -3 -3 -3 -3 -3 -3 -2 -1 -1 -1 0 1 2 3 4 5 5 5 5 5 5 5 6 6 7 7 8 8 8 9 9
-0 -0 -0 0 0 0 -0 -0 -1 -1 -2 -2 -3 -3 -3 -3 -3 -3 -4 -4 -3 -4 -3 -3 -2 -1 -1 -0 1 2 3 4 4 5 5 5 5 5 5 5 6 6 7 7 8 8 8 9 9
-0 -0 -0 -0 0 0 -0 -1 -1 -1 -2 -2 -3 -3 -3 -3 -4 -4 -4 -4 -4 -4 -3 -3 -2 -1 0 1 2 3 4 4 4 4 5 5 6 6 6 6 6 7 7 8 8 8 9 9 10
-0 -0 -0 -0 -0 -0 -0 -0 -1 -1 -1 -2 -3 -3 -3 -4 -4 -4 -4 -4 -4 -3 -2 -1 -0 1 2 3 3 4 4 4 4 5 5 6 6 7 7 7 7 7 8 8 8 9 9 10 10
-1 -1 -1 -1 -0 -0 -0 -0 -1 -1 -1 -1 -2 -3 -3 -3 -3 -3 -3 -2 -2 -1 -0 1 2 3 3 3 3 3 3 4 4 5 5 6 7 7 8 8 8 8 8 9 9 9 9 10 10
-1 -1 -1 -1 -1 -0 -0 -0 -0 -1 -1 -1 -1 -2 -2 -2 -2 -1 -0 0 1 1 2 2 3 3 3 3 3 3 4 4 5 6 6 7 8 8 8 8 8 8 9 9 10 10 10 10 10
-1 -1 -1 -1 -0 -0 -0 -0 -0 -1 -0 -0 -1 -1 -1 -1 0 1 2 2 2 2 2 3 3 3 3 3 4 4 5 6 6 7 7 8 8 8 8 8 9 9 10 10 11 11 10 10 10
-1 -1 -1 -1 -0 -0 -0 -0 -0 -0 0 0 -0 -1 -1 -0 1 2 3 3 3 3 3 3 3 3 4 4 5 5 6 7 7 8 8 8 8 8 9 9 10 11 11 11 11 11 10 10 10
-1 -1 -0 -0 -0 0 0 -0 -0 0 1 1 -0 -1 -0 0 1 2 2 2 2 2 2 3 3 4 4 5 6 7 7 8 8 8 8 8 9 9 10 11 11 12 12 12 11 10 10 9 9
-1 -0 -0 0 0 0 0 0 0 1 1 1 0 -0 -0 1 1 2 2 2 2 2 2 3 3 4 5 6 7 7 8 8 8 9 9 9 10 11 11 12 12 12 11 11 10 10 9 9 9
0 0 0 1 1 0 0 1 1 2 2 1 0 -0 -0 0 1 1 1 2 2 2 3 3 4 5 6 7 7 7 8 9 9 9 10 11 11 11 12 12 12 11 11 10 10 10 9 9 8
0 0 1 1 1 1 1 1 2 2 2 1 1 0 -0 0 1 1 1 1 2 3 3 4 5 6 7 7 7 7 8 9 10 10 11 11 11 12 12 12 11 11 10 10 10 10 9 9 8